Location: Prestice
(49.5670°N, 13.3170°E)
Time: 14:04:54
(UTC+02:00)

ISS - Visible Passes

Search period start: 06 July 2020 00:00
Search period end: 16 July 2020 00:00
Orbit: 417 x 421 km, 51.6° (Epoch: 06 July)

Date Brightness Start Highest point End Pass type
(mag) Time Alt. Az. Time Alt. Az. Time Alt. Az.
06 Jul -1.8 01:51:00 18° ESE 01:51:00 18° ESE 01:52:35 10° E visible
06 Jul -3.8 03:23:55 16° WSW 03:26:30 80° SSE 03:29:52 10° ENE visible
07 Jul -3.7 02:37:47 36° SW 02:38:54 59° SSE 02:42:13 10° ENE visible
07 Jul -3.2 04:12:25 10° W 04:15:45 60° N 04:19:05 10° ENE visible
08 Jul -3.2 01:51:35 40° SE 01:51:35 40° SE 01:54:32 10° ENE visible
08 Jul -3.5 03:24:43 10° W 03:28:04 68° N 03:31:26 10° ENE visible
09 Jul -1.9 01:05:20 20° ESE 01:05:20 20° ESE 01:06:46 10° E visible
09 Jul -3.7 02:38:15 21° WSW 02:40:24 81° NNW 02:43:46 10° ENE visible
09 Jul -3.1 04:14:03 10° WNW 04:17:23 59° N 04:20:43 10° E visible
10 Jul -3.9 01:51:54 47° WSW 01:52:45 79° SSE 01:56:07 10° ENE visible
10 Jul -3.1 03:26:21 10° W 03:29:40 58° N 03:33:00 10° E visible
11 Jul -3.6 01:05:26 55° SE 01:05:26 55° SE 01:08:26 10° ENE visible
11 Jul -3.3 02:38:37 10° W 02:41:57 61° N 02:45:18 10° ENE visible
11 Jul -3.5 04:15:35 10° WNW 04:18:57 76° NNE 04:22:19 10° E visible
12 Jul -2.5 00:18:46 28° E 00:18:46 28° E 00:20:42 10° ENE visible
12 Jul -3.5 01:51:38 16° W 01:54:14 68° NNW 01:57:35 10° ENE visible
12 Jul -3.3 03:27:54 10° WNW 03:31:15 65° N 03:34:35 10° E visible
12 Jul -2.0 23:31:36 19° E 23:31:36 19° E 23:32:53 10° E visible
13 Jul -3.8 01:04:26 21° WSW 01:06:31 82° NNW 01:09:54 10° ENE visible
13 Jul -3.2 02:40:10 10° WNW 02:43:31 59° N 02:46:50 10° E visible
13 Jul -3.8 04:17:02 10° WNW 04:20:23 66° SSW 04:23:42 10° ESE visible
13 Jul -2.4 22:39:55 10° S 22:42:24 19° SE 22:44:55 10° E visible
14 Jul -3.9 00:15:28 10° WSW 00:18:50 79° SSE 00:22:12 10° ENE visible
14 Jul -3.2 01:52:26 10° W 01:55:45 58° N 01:59:05 10° E visible
14 Jul -3.8 03:29:20 10° WNW 03:32:42 87° SSW 03:36:04 10° ESE visible
14 Jul -1.9 21:53:16 10° SSE 21:54:55 13° SE 21:56:34 10° ESE visible
14 Jul -3.8 23:27:52 10° SW 23:31:09 58° SSE 23:34:29 10° ENE visible
15 Jul -3.3 01:04:39 10° W 01:08:00 61° N 01:11:20 10° ENE visible
15 Jul -3.6 02:41:37 10° WNW 02:44:59 76° NNE 02:48:21 10° E visible
15 Jul -3.1 04:18:34 10° W 04:21:37 32° SSW 04:24:39 10° SSE visible
15 Jul -3.4 22:40:20 10° SW 22:43:31 40° SSE 22:46:42 10° ENE visible
